Location: La Coruña
(43.3623°N, 8.4115°W)
Time: 01:15:00
(UTC+01:00)

STARLINK-1109 - Pass Details

Date: 20 January 2020
Orbit: 348 x 350 km, 53.0° (Epoch: 17 February)

Event Time Altitude Azimuth Distance (km) Brightness Sun altitude
Rises 19:25:22 0° 260° (W) 2,163 8.8 -10.3°
Reaches altitude 10° 19:27:32 10° 273° (W) 1,324 6.8 -10.7°
Maximum altitude 19:30:09 28° 335° (NNW) 703 4.3 -11.1°
Enters shadow 19:32:15 14° 32° (NNE) 1,142 4.8 -11.5°
